Terminal Aerodrome Forecast
Issued by NWS Sioux Falls, SD

Home | Current Version | Previous Version | Graphics & Text | Print | Product List | Glossary On
Versions: 1 2 3 4 5 6 7 8 9 10 11 12 13 14 15 16 17 18 19 20 21 22 23 24 25 26 27 28 29 30 31
000
FTUS43 KFSD 240520
TAFSUX
TAF
KSUX 240520Z 2406/2506 31009KT P6SM SKC
     FM241400 27006KT P6SM SKC
     FM242200 30012KT P6SM BKN120
     FM250300 32014G20KT P6SM BKN030=

USA.gov is the U.S. government's official web portal to all federal, state and local government web resources and services.